Regional Weather Roundup
Issued by NWS Boston, MA

Current Version | Previous Version | Text Only | Print | Product List | Glossary Off
Versions: 1 2 3 4 5 6 7 8 9 10 11 12 13 14 15 16 17 18 19 20 21 22 23 24 25 26 27 28 29 30 31 32 33 34 35 36 37 38 39 40 41 42 43 44 45 46 47 48 49 50
000 ASUS41 KBOX 191210 RWRBOX REGIONAL WEATHER ROUNDUP NATIONAL WEATHER SERVICE BOSTON/NORTON MA 800 AM EDT SUN AUG 19 2018 NOTE: "FAIR" INDICATES FEW OR NO CLOUDS BELOW 12,000 FEET WITH NO SIGNIFICANT WEATHER AND/OR OBSTRUCTIONS TO VISIBILITY. MAZALL-191300- EASTERN MASSACHUSETTS CITY SKY/WX TMP DP RH WIND PRES REMARKS BOSTON PTSUNNY 70 60 70 NE16G25 29.98R 6HR MIN TEMP: 67; 6HR MAX TEMP: 70; BEVERLY FAIR 68 62 81 NE10 29.99R LAWRENCE FAIR 68 60 75 N8 30.02R BEDFORD PTSUNNY 67 60 78 NE10 29.99R BLUE HILL N/A 64 60 87 NE14G26 29.98R NORWOOD PTSUNNY 71 63 75 NE8G17 29.97R MARSHFIELD PTSUNNY 68 63 83 NE13G20 29.97R PLYMOUTH CLOUDY 67 62 84 NE15G22 29.96R TAUNTON CLOUDY 67 63 87 NE6 29.96R NEW BEDFORD CLOUDY 66 64 93 NE7 29.94R $$ MAZALL-191300- CAPE COD AND THE ISLANDS CITY SKY/WX TMP DP RH WIND PRES REMARKS FALMOUTH CLOUDY 66 63 88 NE16 29.95R HYANNIS CLOUDY 68 62 81 NE15 29.93R CHATHAM CLOUDY 67 61 81 NE10G17 29.95R PROVINCETOWN CLOUDY 66 62 87 NE13 29.97R NANTUCKET CLOUDY 67 64 90 NE15 29.92R MARTHAS VNYRD CLOUDY 68 64 87 NE13 29.93R $$ MAZALL-191300- CENTRAL AND WESTERN MASSACHUSETTS CITY SKY/WX TMP DP RH WIND PRES REMARKS WORCESTER PTSUNNY 63 60 90 NE9G20 30.01R 6HR MIN TEMP: 61; 6HR MAX TEMP: 63; 6HR PCP: TRACE; FITCHBURG FAIR 65 60 84 VRB6 30.03 ORANGE FAIR 67 60 78 N6 30.03R SPRINGFIELD PTSUNNY 67 61 80 NE9 29.99R WESTFIELD CLOUDY 67 63 87 N7 30.00R NORTH ADAMS FAIR 67 56 67 VRB5 30.01R PITTSFIELD CLOUDY 65 58 78 NE7 30.01R $$ RIZALL-191300- RHODE ISLAND CITY SKY/WX TMP DP RH WIND PRES REMARKS PROVIDENCE PTSUNNY 66 63 88 NE16G22 29.97R 6HR MIN TEMP: 65; 6HR MAX TEMP: 67; NEWPORT CLOUDY 67 62 84 NE13 N/A BLOCK ISLAND CLOUDY 67 63 87 NE14G23 29.94R SMITHFIELD CLOUDY 65 61 87 NE9 29.99R WESTERLY LGT RAIN 67 66 97 N7 29.95S FOG $$ CTZALL-191300- CONNECTICUT CITY SKY/WX TMP DP RH WIND PRES REMARKS BRADLEY INTL CLOUDY 67 62 84 N6 29.99R 6HR MIN TEMP: 65; 6HR MAX TEMP: 67; 6HR PCP: TRACE; HARTFORD CLOUDY 67 61 81 N12 29.97R BRIDGEPORT CLOUDY 68 64 87 NE13 29.95R DANBURY CLOUDY 66 61 84 NE8 29.98R GROTON LGT RAIN 66 64 93 NE13 29.94R NEW HAVEN CLOUDY 68 64 87 NE8 29.96R CHESTER CLOUDY 66 64 94 NE6G14 29.97R MERIDEN CLOUDY 67 61 81 NE9 29.97R WILLIMANTIC CLOUDY 67 63 87 NE12 29.98R OXFORD CLOUDY 65 60 84 NE15G25 29.98R $$ MEZ002-015-021-024-NHZ003-005-008-011-012-014-VTZ005-008-191300- NORTHERN NEW ENGLAND CITY SKY/WX TMP DP RH WIND PRES REMARKS PORTLAND ME FAIR 66 60 81 N8 30.04R 6HR MIN TEMP: 58; 6HR MAX TEMP: 66; BANGOR ME FAIR 63 57 81 N9 30.06R CONCORD NH FAIR 65 61 87 VRB3 30.03R MANCHESTER NH PTSUNNY 66 59 78 N9 30.01R NASHUA NH FAIR 65 62 90 NW6 30.03R PORTSMOUTH NH PTSUNNY 65 59 82 N7 30.01 JAFFREY NH FAIR 64 61 90 CALM 30.04R KEENE NH FAIR N/A N/A N/A N6 30.03R BURLINGTON VT FOG 60 59 96 E5 30.06R VSB 1 MT. WASHINGTON FOG 43 43 100 E28 N/A VSB 0 $$ NYZ052-076-191300- EASTERN NEW YORK CITY SKY/WX TMP DP RH WIND PRES REMARKS ALBANY PTSUNNY 68 61 78 N6 30.01R 6HR MIN TEMP: 66; 6HR MAX TEMP: 69; NEW YORK CITY LGT RAIN 71 65 81 NE14 29.93R 6HR MIN TEMP: 71; 6HR MAX TEMP: 73; 6HR PCP: TRACE; $$ ANZALL-191300- MARINE OBSERVATIONS STATION/POSITION TIME TEMP WIND PRES VSBY WAVE AIR SEA DIR/SP/G HT/PER (UTC) (F) (DEG/KT/KT) (MB) (MI) (FT/S) BOSTON BUOY 1150 67 69 40/ 19/ 21 1014.1R 4/ 6 BUZZARDS BAY 1100 67 40/ 23/ 25 1013.2R NANTUCKET SOUND 1150 69 76 30/ 19/ 23 1013.2R 2/ 4 MASS BAY-STELLWA 1104 67 68 40/ 17/ 19 1012.9R 1 7/8 4/ 5 ISLE OF SHOALS 1100 65 30/ 14/ 17 1015.1R S OF BLOCK IS 1143 76 N/A 5/ 5 $$ ......................KEY......................... SKY/WX - SKY CONDITION/PRESENT WEATHER TMP - TEMPERATURE IN FAHRENHEIT DWPT - DEWPOINT IN FAHRENHEIT RH - RELATIVE HUMIDITY IN PERCENT WIND - DIRECTION AND SPEED IN MPH PRES - MEAN SEA LEVEL PRESSURE IN INCHES OF HG WCI - WIND CHILL INDEX VSB - VISIBILITY IN MILES HX - HEAT INDEX TC - TEMPERATURE IN CELSIUS VRB - VARIABLE WIND DIRECTION N/A - NOT AVAILABLE

USA.gov is the U.S. government's official web portal to all federal, state and local government web resources and services.